[[{"header":{"parameterUnit":"m.s-1","parameterCategory":1,"la1":30.2992,"la2":30.254,"lo1":-89.0895,"lo2":-89.0443,"dy":0.0025,"dx":0.0025,"nx":19,"ny":19,"refTime":"2026-03-28T09:00:00:Z","depth":0,"parameterNumber":2,"parameterNumberName":"U-component_of_WINDS"},"data":[0,0,0,-6.9184,-6.9187,-6.9293,-6.9293,-6.9462,-6.9464,0,0,0,0,0,0,0,0,0,0,0,-6.9173,-6.9175,-6.9184,-6.9187,-6.9293,-6.9293,-6.9462,-6.9464,0,0,0,0,0,0,0,0,0,0,0,-6.9172,-6.9174,-6.9177,-6.9188,-6.9293,-6.9293,-6.9461,-6.9369,0,0,0,0,0,0,0,0,0,0,-6.926,-6.927,-6.9174,-6.9177,-6.9188,-6.9293,-6.9293,-6.9364,-6.9375,-6.9428,0,-6.9481,0,-6.9476,-6.9477,-6.9478,0,0,0,-6.9171,-6.9262,-6.9272,-6.9177,-6.9189,-6.9293,-6.9241,-6.937,-6.9382,-6.9443,-6.9484,-6.9489,-6.9478,-6.9478,-6.9479,-6.984,-6.9843,0,0,-6.9165,-6.9203,-6.9264,-6.9281,-6.9267,-6.9238,-6.9244,-6.9377,-6.9423,-6.9484,-6.9492,-6.9481,-6.948,-6.9481,-6.9838,-6.9841,0,0,0,-6.9159,-6.92,-6.9206,-6.9275,-6.9292,-6.9241,-6.9249,-6.9417,-6.9416,-6.9494,-6.9483,-6.9481,-6.9483,-6.9835,-6.9839,-6.9994,0,0,0,-6.9155,-6.9196,-6.9204,-6.9228,-6.929,-6.9356,-6.9287,-6.9407,-6.9421,-6.9482,-6.9481,-6.9485,-6.9832,-6.9837,-6.9984,-7.006,0,0,0,-6.9159,-6.9196,-6.9218,-6.923,-6.9277,-6.9353,-6.9359,-6.9409,-6.9416,-6.9478,-6.9486,-6.9831,-6.9836,-6.9975,-7.0045,-7.0165,0,0,0,-6.9174,-6.9355,-6.9222,-6.9419,-6.9276,-6.9449,-6.9358,-6.9484,-6.9557,-6.9482,-6.9833,-6.9839,-6.9972,-7.0036,-7.0155,-7.027,-7.0323,0,0,-6.9422,-6.9386,-6.9499,-6.9383,-6.9589,-6.943,-6.9658,-6.9689,-6.966,-6.9782,-6.979,-6.9987,-7.0044,-7.0163,-7.0606,-7.0648,0,0,0,-6.959,-6.9672,-6.9719,-6.979,-6.9819,-6.9849,-6.9841,-6.9852,-6.9954,-6.9731,-7.0062,-7.0095,-7.0163,-7.0216,-7.0252,-7.0307,-6.9865,-6.9865,-6.9864,-6.9993,-6.9949,-7.0133,-7.0102,-7.0172,-7.0163,-7.0215,-7.0229,-7.0162,-7.0242,-7.0277,-7.0551,-7.0615,-7.0641,-7.07,-7.0336,-7.0337,-7.0337,-7.0338,-7.0351,-7.0459,-7.0369,-7.0515,-7.0467,-7.0588,-7.0588,-7.0537,-7.0643,-7.0521,-7.0579,-7.0447,-7.0689,-7.0737,-7.0349,-7.0347,-7.0345,-7.0344,-7.0344,-7.0608,-7.0651,-7.0664,-7.0763,-7.0844,-7.0807,-7.0913,-7.0866,-7.0821,-7.0879,-7.091,-7.0907,-7.0896,-7.0898,-7.0899,-7.09,-7.09,-7.0901,-7.0902,-7.0868,-7.0877,-7.0973,-7.102,-7.106,-7.1106,-7.1101,-7.1139,-7.1168,-7.1125,-7.1125,-7.105,-7.0722,-7.0639,-7.0916,-7.0914,-7.0912,-7.091,-7.0909,-7.1242,-7.1151,-7.1299,-7.1339,-7.1391,-7.1475,-7.1414,-7.1496,-7.152,-7.1574,-7.1489,-7.1254,-7.1212,-7.1184,-7.1115,-7.1499,-7.1499,-7.1499,-7.1499,-7.1457,-7.1433,-7.1573,-7.1641,-7.1702,-7.1663,-7.1831,-7.183,-7.1813,-7.1825,-7.1764,-7.1669,-7.1642,-7.1616,-7.1578,-7.1513,-7.1989,-7.199,-7.199,-7.1684,-7.1664,-7.1815,-7.1799,-7.1837,-7.1871,-7.2027,-7.2108,-7.207,-7.2009,-7.1834,-7.1813,-7.1659,-7.1612,-7.1543,-7.1486,-7.1364,0,0]},{"header":{"parameterUnit":"m.s-1","parameterCategory":1,"la1":30.2992,"la2":30.254,"lo1":-89.0895,"lo2":-89.0443,"dy":0.0025,"dx":0.0025,"nx":19,"ny":19,"refTime":"2026-03-28T09:00:00:Z","depth":0,"parameterNumber":3,"parameterNumberName":"V-component_of_WINDS"},"data":[0,0,0,1.6619,1.6619,1.6584,1.6584,1.6528,1.6528,0,0,0,0,0,0,0,0,0,0,0,1.6626,1.6625,1.6619,1.6619,1.6584,1.6584,1.6529,1.6528,0,0,0,0,0,0,0,0,0,0,0,1.6626,1.6625,1.6625,1.6618,1.6584,1.6584,1.6529,1.6558,0,0,0,0,0,0,0,0,0,0,1.6593,1.6596,1.6625,1.6625,1.6618,1.6584,1.6584,1.6559,1.6556,1.654,0,1.6528,0,1.6527,1.6524,1.6524,0,0,0,1.662,1.6599,1.6593,1.6625,1.6618,1.6584,1.66,1.6558,1.6554,1.6536,1.6527,1.6525,1.6526,1.6523,1.6523,1.6434,1.6433,0,0,1.6622,1.6616,1.6596,1.6591,1.6599,1.6601,1.6599,1.6556,1.6544,1.6527,1.6524,1.6526,1.6523,1.6522,1.6434,1.6434,0,0,0,1.6626,1.6617,1.6614,1.6593,1.6588,1.66,1.6598,1.6546,1.6546,1.6524,1.6525,1.6523,1.6522,1.6435,1.6434,1.6405,0,0,0,1.6628,1.662,1.6614,1.661,1.6589,1.6567,1.6589,1.6549,1.6544,1.6525,1.6523,1.6521,1.6435,1.6434,1.6407,1.6391,0,0,0,1.6629,1.662,1.6615,1.661,1.6596,1.6568,1.6565,1.6548,1.6545,1.6524,1.6521,1.6436,1.6435,1.6409,1.6394,1.6366,0,0,0,1.6628,1.6587,1.6614,1.6568,1.6596,1.6552,1.6566,1.6532,1.651,1.6522,1.6435,1.6434,1.6409,1.6395,1.6367,1.634,1.6329,0,0,1.6572,1.658,1.6553,1.6577,1.6527,1.6558,1.6502,1.6486,1.6487,1.6451,1.6449,1.6406,1.6394,1.6366,1.627,1.6261,0,0,0,1.6534,1.6514,1.6503,1.6484,1.6474,1.6462,1.6456,1.645,1.6421,1.6469,1.6389,1.6382,1.6366,1.6353,1.6345,1.6331,1.6429,1.6429,1.6429,1.6444,1.6452,1.6409,1.6413,1.6394,1.639,1.6375,1.6366,1.6376,1.6358,1.6346,1.6287,1.6272,1.6266,1.6252,1.6334,1.6334,1.6333,1.6333,1.6362,1.6336,1.6355,1.632,1.6328,1.6297,1.6291,1.63,1.6271,1.6296,1.6282,1.6307,1.6256,1.6244,1.6331,1.6332,1.6332,1.6332,1.6332,1.6303,1.6292,1.6289,1.6265,1.6244,1.6249,1.6221,1.6228,1.6234,1.6221,1.6209,1.621,1.621,1.6216,1.6215,1.6215,1.6215,1.6215,1.6215,1.6243,1.6241,1.6218,1.6206,1.6196,1.6183,1.618,1.6169,1.6158,1.6165,1.6165,1.6176,1.6251,1.6269,1.6211,1.6212,1.6212,1.6213,1.6213,1.6154,1.6176,1.6142,1.6132,1.6118,1.6097,1.6109,1.6086,1.6078,1.6064,1.608,1.6135,1.6141,1.6147,1.6161,1.608,1.608,1.608,1.608,1.6103,1.6109,1.6076,1.606,1.6045,1.6053,1.6011,1.6008,1.6008,1.6003,1.6017,1.6038,1.6044,1.6046,1.6055,1.6068,1.5964,1.5964,1.5964,1.6049,1.6054,1.6018,1.6022,1.6013,1.6004,1.5965,1.5943,1.5947,1.5959,1.5999,1.6004,1.6038,1.6049,1.6059,1.6072,1.6097,0,0]}]]